CW5346 Weather Reports


Display with metric or nautical units.
time (UTC)temp
F
wind
direction
speed
MPH
gust
MPH
rain 1hr
in
rain 24hr
in
rain mn
in
humidity
%
barometer
mb
20260507012603 58 324 1.0 11.0 0.00 0.12 0.12 92 1008.6
20260507011647 58 334 5.0 9.0 0.00 0.12 0.12 93 1008.2
20260507010603 59 329 1.0 10.0 0.00 0.12 0.12 93 1008.2
20260507005603 61 303 5.0 10.0 0.03 0.12 0.12 95 1008.1
20260507004603 61 250 0.0 0.0 0.01 0.10 0.10 95 1007.3
20260507003625 61 250 0.0 0.0 0.00 0.09 0.09 95 1007.0
20260507002624 61 250 0.0 3.0 0.00 0.09 0.09 95 1007.0
20260507001603 61 249 0.0 2.0 0.00 0.09 0.09 95 1007.0
20260507000604 61 250 0.0 0.0 0.00 0.09 0.09 95 1007.1
20260506235603 62 250 0.0 0.0 0.00 0.09 0.09 95 1007.0
20260506234603 62 250 0.0 5.0 0.00 0.09 0.09 94 1006.9
20260506233603 62 252 1.0 5.0 0.00 0.09 0.09 94 1006.7
20260506231604 62 259 1.0 7.0 0.00 0.09 0.09 94 1006.9
20260506230604 62 213 0.0 6.0 0.00 0.09 0.09 95 1007.0
20260506225603 62 215 0.0 4.0 0.00 0.09 0.09 95 1006.9
20260506224603 62 214 2.0 6.0 0.00 0.09 0.09 94 1006.8
20260506223604 62 213 2.0 5.0 0.00 0.09 0.09 94 1006.6
20260506222603 62 213 1.0 5.0 0.00 0.09 0.09 94 1006.7
20260506221603 62 214 0.0 7.0 0.00 0.09 0.09 94 1006.5
20260506220603 62 221 1.0 4.0 0.00 0.09 0.09 94 1006.4
20260506215603 62 221 0.0 8.0 0.00 0.09 0.09 95 1006.3
20260506214624 62 221 0.0 7.0 0.00 0.09 0.09 95 1006.3
20260506213603 62 216 1.0 8.0 0.00 0.09 0.09 95 1006.3
20260506212603 62 221 2.0 9.0 0.00 0.09 0.09 95 1006.2
20260506211604 62 237 4.0 9.0 0.00 0.09 0.09 95 1006.2
20260506210603 62 212 2.0 7.0 0.00 0.09 0.09 95 1006.1
20260506205603 62 205 3.0 10.0 0.00 0.09 0.09 95 1006.1
20260506204603 62 222 6.0 12.0 0.00 0.09 0.09 95 1006.0
20260506203603 62 216 4.0 9.0 0.00 0.09 0.09 95 1006.0
20260506202603 62 225 3.0 13.0 0.00 0.09 0.09 95 1006.0
20260506201603 62 219 2.0 8.0 0.00 0.09 0.09 95 1006.0
20260506200604 62 230 4.0 8.0 0.00 0.09 0.09 95 1006.0
20260506195602 62 236 4.0 8.0 0.04 0.09 0.09 95 1006.2
20260506194603 62 246 3.0 9.0 0.04 0.09 0.09 94 1006.5
20260506193602 62 200 2.0 10.0 0.03 0.08 0.08 94 1006.6
20260506192603 62 219 4.0 14.0 0.03 0.08 0.08 94 1006.6
20260506191604 62 224 2.0 10.0 0.02 0.07 0.07 93 1006.8
20260506190603 62 223 1.0 7.0 0.01 0.06 0.06 93 1006.7
20260506185625 62 274 4.0 9.0 0.01 0.05 0.05 92 1006.8
20260506184603 62 209 0.0 6.0 0.00 0.04 0.04 92 1006.8
20260506182603 63 217 1.0 12.0 0.00 0.04 0.04 91 1006.9
20260506181603 63 220 6.0 12.0 0.00 0.04 0.04 91 1007.0
20260506180603 63 182 4.0 9.0 0.00 0.04 0.04 91 1007.2
20260506175602 63 217 1.0 7.0 0.01 0.04 0.04 91 1007.2
20260506174603 63 195 3.0 12.0 0.01 0.04 0.04 91 1007.3
20260506173602 63 226 5.0 10.0 0.01 0.04 0.04 92 1007.3
20260506172603 63 216 0.0 7.0 0.01 0.04 0.04 92 1007.2
20260506171645 63 215 0.0 11.0 0.00 0.03 0.03 91 1007.1
20260506170602 63 209 3.0 10.0 0.00 0.03 0.03 91 1007.3
20260506165603 63 235 2.0 8.0 0.03 0.03 0.03 90 1007.4
20260506164624 64 214 2.0 7.0 0.02 0.02 0.02 90 1007.5
20260506163604 64 220 2.0 6.0 0.02 0.02 0.02 88 1007.8
20260506162602 64 228 1.0 9.0 0.01 0.01 0.01 87 1007.9
20260506161603 65 216 3.0 8.0 0.00 0.00 0.00 84 1008.1
20260506160603 65 211 5.0 13.0 0.00 0.00 0.00 83 1008.6
20260506155647 66 194 0.0 9.0 0.00 0.00 0.00 81 1008.7
20260506154624 67 193 0.0 9.0 0.00 0.00 0.00 80 1008.4
20260506153624 67 214 2.0 10.0 0.00 0.00 0.00 78 1008.3
20260506152603 67 228 5.0 14.0 0.00 0.00 0.00 76 1008.2
20260506151624 68 168 3.0 21.0 0.00 0.00 0.00 74 1008.6
20260506150603 68 229 8.0 18.0 0.00 0.00 0.00 73 1008.7
20260506145624 68 222 5.0 19.0 0.00 0.00 0.00 73 1008.7
20260506144603 68 211 6.0 18.0 0.00 0.00 0.00 73 1008.7
20260506143603 68 231 2.0 17.0 0.00 0.00 0.00 74 1008.6
20260506142603 68 204 7.0 15.0 0.00 0.00 0.00 74 1008.5
20260506141603 68 209 7.0 15.0 0.00 0.00 0.00 74 1008.6
20260506140602 68 232 6.0 14.0 0.00 0.00 0.00 74 1008.6
20260506135603 67 212 6.0 15.0 0.00 0.00 0.00 75 1008.8
20260506134603 67 227 5.0 11.0 0.00 0.00 0.00 76 1008.8
20260506133603 67 199 6.0 12.0 0.00 0.00 0.00 76 1009.0
20260506132603 67 224 7.0 12.0 0.00 0.00 0.00 77 1008.7
20260506130624 66 216 5.0 17.0 0.00 0.00 0.00 77 1009.0
20260506125603 66 210 3.0 11.0 0.00 0.00 0.00 77 1008.7
20260506124624 66 235 6.0 15.0 0.00 0.00 0.00 78 1008.6
20260506123603 66 227 2.0 14.0 0.00 0.00 0.00 79 1008.5
20260506122602 66 212 3.0 9.0 0.00 0.00 0.00 78 1008.7
20260506121603 65 229 4.0 14.0 0.00 0.00 0.00 78 1008.8
20260506120602 65 211 6.0 14.0 0.00 0.00 0.00 79 1008.9
20260506115603 65 231 6.0 13.0 0.00 0.00 0.00 78 1008.9
20260506114602 65 259 4.0 13.0 0.00 0.00 0.00 79 1009.2
20260506113624 65 237 3.0 10.0 0.00 0.00 0.00 79 1009.1
20260506112603 66 222 4.0 16.0 0.00 0.00 0.00 79 1008.9
20260506111603 65 230 0.0 9.0 0.00 0.00 0.00 80 1009.0
20260506110603 65 185 3.0 14.0 0.00 0.00 0.00 80 1009.0
20260506105603 65 246 5.0 9.0 0.00 0.00 0.00 80 1008.8
20260506104603 64 214 6.0 14.0 0.00 0.00 0.00 81 1008.9
20260506103602 64 232 4.0 15.0 0.00 0.00 0.00 81 1009.0
20260506102603 64 227 4.0 8.0 0.00 0.00 0.00 82 1008.9
20260506101602 64 255 1.0 8.0 0.00 0.00 0.00 82 1008.8
20260506100603 64 261 3.0 10.0 0.00 0.00 0.00 83 1008.8
20260506095602 63 220 3.0 8.0 0.00 0.00 0.00 84 1008.5
20260506094603 63 211 1.0 8.0 0.00 0.00 0.00 84 1008.7
20260506093603 62 232 0.0 13.0 0.00 0.00 0.00 84 1008.7
20260506092603 62 213 0.0 4.0 0.00 0.00 0.00 84 1008.7
20260506091602 62 213 0.0 6.0 0.00 0.00 0.00 84 1008.7
20260506090603 62 211 0.0 6.0 0.00 0.00 0.00 83 1008.7
20260506085603 62 213 2.0 7.0 0.00 0.00 0.00 83 1008.8
20260506084623 62 213 0.0 5.0 0.00 0.00 0.00 83 1008.9
20260506083603 62 214 2.0 6.0 0.00 0.00 0.00 82 1009.0
20260506082605 62 215 0.0 1.0 0.00 0.00 0.00 82 1008.9
20260506081605 62 214 1.0 5.0 0.00 0.00 0.00 82 1009.0
20260506080605 63 213 0.0 3.0 0.00 0.00 0.00 80 1009.0
20260506072604 65 217 3.0 7.0 0.00 0.00 0.00 76 1009.1
20260506071604 65 227 0.0 7.0 0.00 0.00 0.00 75 1009.0
20260506070604 65 208 0.0 6.0 0.00 0.00 0.00 74 1009.1
20260506061604 67 203 0.0 6.0 0.00 0.00 0.00 71 1009.2
20260506060604 67 199 1.0 7.0 0.00 0.00 0.00 70 1009.1
20260506050604 68 198 1.0 8.0 0.00 0.00 0.00 67 1009.8
20260506044604 68 228 0.0 11.0 0.00 0.00 0.00 66 1009.8
20260506043604 69 198 4.0 13.0 0.00 0.00 0.00 65 1009.7
20260506042604 69 237 4.0 15.0 0.00 0.00 0.00 65 1009.8
20260506041603 69 224 3.0 14.0 0.00 0.00 0.00 65 1009.7
20260506040646 69 225 2.0 10.0 0.00 0.00 0.00 64 1009.7
20260506035604 70 238 2.0 10.0 0.00 0.00 0.00 63 1009.6
20260506034605 70 235 2.0 11.0 0.00 0.00 0.00 62 1009.7
20260506033605 70 210 2.0 14.0 0.00 0.00 0.00 61 1009.7
20260506032604 71 224 1.0 8.0 0.00 0.00 0.00 60 1009.6
20260506030604 72 178 1.0 10.0 0.00 0.00 0.00 58 1009.5
20260506025604 72 214 4.0 16.0 0.00 0.00 0.00 57 1009.5
20260506024604 73 227 6.0 15.0 0.00 0.00 0.00 56 1009.4
20260506023604 73 220 5.0 19.0 0.00 0.00 0.00 54 1009.4
20260506022604 73 207 7.0 17.0 0.00 0.00 0.00 53 1009.4
20260506021603 74 233 5.0 16.0 0.00 0.00 0.00 51 1009.3
20260506020625 74 225 5.0 18.0 0.00 0.00 0.00 49 1009.3
20260506015625 74 225 4.0 14.0 0.00 0.00 0.00 49 1009.1
20260506014604 75 202 4.0 12.0 0.00 0.00 0.00 48 1009.1
20260506013604 75 194 2.0 15.0 0.00 0.00 0.00 48 1008.8